Showing default

SATELIOT_2, 60534

Orbit data source: Space-Track

SATELIOT_2, 60534 is a payload satellite owned by Sateliot (ES) in SSO that was launched on Fri, 16 Aug 2024 UTC via an FALCON 9 launch vehicle from the Air Force Western Test Range (AFWTR). Payload-class satellites include a variety of spacecraft equipped with specific instruments for various scientific and technological missions. These include communications satellites like Starlink; space stations such as the ISS; scientific satellites like the Hubble; Earth observation satellites from companies like Planet Labs, Umbra, and HawkEye 360; GPS; miniature CubeSats for education and research; and military/defense satellites.

Loading next visibility...
Identifier
60534, 2024-149BU
Orbit
SSO
Country
Flag of ESES / SPN
Related business
Manufacturer
Endurosat
Mission
Operational Commercial Communications
Bus & Motor
CUBESAT 6U, Unknown motor
Mass
7.407 kg wet, 7.407 kg dry
Launch date (UTC)
2024-08-16 (1 year ago)
Launch vehicle
FALCON 9
Launch site
Air Force Western Test Range (AFWTR)
Object type
Payload
Rocket body
Debris
Shape & HBR
Box + 2 Pan, 0.2 m
Radar Cross Section
0.092 m², Medium (>0.1 m² and < 1m²)

Expand to show TLE details & history
Last TLE update: 14 hours ago

TLE from 14 hours ago
0 SATELIOT_2
1 60534U 24149BU  26034.46180248  .00002008  00000-0  18518-3 0  9992
2 60534  97.6952 111.8462 0001246 112.7653 247.3700 14.95767976 79975
Epoch: 2026-02-03T11:04Z
TLE epoch observation values (Epoch: 2026-02-03T11:04:59.734Z)
Latitude
Longitude
171.95491°
Altitude
583.373 km
Speed
7.568 km/s
True Right ascension
07h 27m 23s
True Declination
0° 00' 00"
Sunlit
Object was in full shadow at epoch
Visualization orbit readout
Latitude
Unknown
Longitude
Unknown
Altitude
Unknown
Speed
Unknown
Apparent Right ascension
Unknown
Apparent Declination
Unknown
Sunlit
N/A
Visualization observer readout
Local Sidereal Time
02:55:27
Azimuth
Unknown
Elevation
Unknown
Doppler factor
Unknown
Orbital elements
Apogee altitude
577.867 km
Perigee altitude
576.134 km
Semi-major axis
6,955.138 km
Eccentricity
0.00012
Inclination
97.6952°
RAAN
111.8462°
Arg. of periapsis
112.7653°
True anomaly
247.35682°
Mean anomaly
247.37°
Eccentric anomaly
247.36341°
Mean motion
3.74183 °/min
Orbital period
96.21 mins
BSTAR
0.00018518
Loading maneuver chart data...
Computing Atmospheric mass density...
Loading historical data...
Loading historical data...
Loading historical data...
Loading historical data...
Loading historical data...
Loading historical data...
Loading historical data...

Documentation

Showing up to 5 results
|